{"data":{"norad_id":58016,"intl_designator":"2023-155A","name":"THEOS-2 (T2V)","alt_names":[],"object_type":"PAYLOAD","status":"ACTIVE","operator":null,"country":"THAI","launch_date":"2023-10-09","launch_site_code":"FRGUI","launch_vehicle":null,"mission":null,"orbit_class":"UNKNOWN","rcs_meters":null,"size_class":null,"mass_kg":null,"dimensions":null,"purposes":[],"wikipedia_slug":null,"has_3d_model":false,"image_url":null,"decayed_at":null,"tle_current":{"epoch":"2026-05-25T03:39:41.204736Z","epoch_age_seconds":57931,"freshness":"FRESH","line1":"1 58016U 23155A   26145.15256024  .00000694  00000+0  94801-4 0  9993","line2":"2 58016  97.8882 216.4793 0001533  91.6740 268.4648 14.81695727142011","mean_motion":14.81695727,"eccentricity":0.0001533,"inclination_deg":97.8882,"raan_deg":216.4793,"arg_perigee_deg":91.674,"mean_anomaly_deg":268.4648,"bstar":9.4801e-5,"rev_number":14201,"period_min":97.185945384048,"perigee_km":622.90323013225,"apogee_km":625.05007817861,"semimajor_km":7002.1136541554,"source":"CELESTRAK","updated_at":"2026-05-25T13:38:00.424756Z"}}}